This is the latest recevied weather packets stored in our database for station/object KA3BQE-13. If no packets are shown the sender has not sent any weather packets the latest 10 day(s).
| Time | Temp. | Humidity | Pressure | Rain* | Wind** | Luminosity | Snow |
|---|---|---|---|---|---|---|---|
| 1777961520 | 12.78° C | 99% | 1005.7 hPa | 0 mm | - | 0 W/m² | - |
| 1777961217 | 12.78° C | 98% | 1005.8 hPa | 0 mm | - | 0 W/m² | - |
| 1777960913 | 12.78° C | 98% | 1005.6 hPa | 0 mm | - | 0 W/m² | - |
| 1777960609 | 12.78° C | 98% | 1005.7 hPa | 0 mm | - | 0 W/m² | - |
| 1777960306 | 13.33° C | 98% | 1005.6 hPa | 0 mm | - | 0 W/m² | - |
| 1777960003 | 13.33° C | 97% | 1005 hPa | 0 mm | - | 0 W/m² | - |
| 1777959701 | 13.33° C | 98% | 1005.4 hPa | 0 mm | - | 0 W/m² | - |
| 1777959399 | 13.33° C | 98% | 1005.3 hPa | 0 mm | - | 0 W/m² | - |
| 1777959095 | 13.33° C | 98% | 1005.3 hPa | 0 mm | - | 0 W/m² | - |
| 1777958792 | 13.33° C | 98% | 1004.8 hPa | 0 mm | - | 0 W/m² | - |
| 1777958489 | 13.89° C | 97% | 1004.9 hPa | 0 mm | - | 0 W/m² | - |
| 1777958186 | 13.89° C | 97% | 1004.9 hPa | 0 mm | - | 0 W/m² | - |
| 1777957885 | 13.89° C | 97% | 1004.8 hPa | 0 mm | - | 0 W/m² | - |
| 1777957582 | 13.89° C | 97% | 1004.5 hPa | 0 mm | - | 0 W/m² | - |
| 1777957280 | 13.89° C | 97% | 1004.2 hPa | 0 mm | - | 0 W/m² | - |
| 1777956975 | 13.89° C | 96% | 1003.9 hPa | 0 mm | - | 0 W/m² | - |
| 1777956673 | 14.44° C | 95% | 1004.1 hPa | 0 mm | - | 0 W/m² | - |
| 1777956370 | 14.44° C | 91% | 1003.8 hPa | 0.51 mm | - | 0 W/m² | - |
| 1777956066 | 14.44° C | 90% | 1003.6 hPa | 0.51 mm | - | 0 W/m² | - |
| 1777955762 | 15° C | 88% | 1003.7 hPa | 0.51 mm | - | 0 W/m² | - |
| 1777955460 | 15° C | 86% | 1004.2 hPa | 1.27 mm | - | 0 W/m² | - |
| 1777955155 | 15° C | 89% | 1003.7 hPa | 1.78 mm | - | 0 W/m² | - |
| 1777954853 | 15° C | 89% | 1004.9 hPa | 3.56 mm | - | 0 W/m² | - |
| 1777954549 | 15° C | 89% | 1005 hPa | 6.1 mm | - | 0 W/m² | - |
| 1777954247 | 15° C | 87% | 1005.3 hPa | 6.1 mm | - | 0 W/m² | - |
* Rain latest hour (hover to see other rain measurements)
** Current wind speed in m/s (hover to see current wind gust speed)